Lid_Strength_Index
-1 -1 -2 -2 0 1 1 1 1 1 2 2 2 2 1 1 1 2 4 2 1 -1 -0 1 1 2 2 3 3 3 9 10 9 9 8 5 6 5 4 5 4 4 4 3 2
-2 -2 -2 -2 -2 -1 -0 -0 0 1 1 2 3 2 2 1 4 6 2 0 0 -1 2 4 5 4 5 4 4 6 9 9 6 6 7 6 6 6 6 5 5 5 3 2 2
-2 -1 -2 -2 -2 -2 -2 -1 -1 -0 0 1 2 2 2 2 8 9 -0 -0 -0 1 2 2 3 5 6 5 5 6 8 6 6 5 6 6 7 6 6 7 5 5 4 3 3
-1 -1 -2 -1 -2 -2 -2 -2 -2 -1 -1 -0 0 1 1 4 14 4 -0 -0 0 1 2 4 5 7 8 8 6 8 6 5 6 5 6 6 5 6 6 5 5 4 4 3 3
-1 -1 -1 -1 -1 -2 -2 -2 -2 -2 -2 -2 -2 -1 2 7 9 2 0 0 1 2 3 4 6 6 8 8 7 7 8 6 5 5 5 5 6 6 6 4 4 4 5 4 3
-1 -1 -1 -1 -1 -1 -2 -1 -2 -2 -2 -2 -2 -2 2 9 2 2 -0 0 1 2 3 3 5 5 6 7 7 6 7 7 5 6 6 7 6 6 5 4 4 4 4 3 3
-1 -1 -1 -1 -1 -1 -1 -1 -1 -1 -2 -2 -2 -0 3 5 0 -1 -0 1 0 1 3 2 2 5 6 7 5 6 8 7 7 6 7 5 8 8 5 4 5 4 4 3 3
-1 -1 -1 -1 -1 -1 -1 -1 -1 -2 -1 -1 -2 0 5 1 -1 0 -0 1 0 0 1 1 2 4 5 5 7 9 8 11 9 7 6 7 11 8 5 5 5 4 4 4 3
-1 -1 -1 -1 -1 -1 -1 -1 -1 -2 -2 -1 2 3 6 1 3 1 1 2 2 1 1 1 3 5 6 9 10 9 12 11 9 6 7 8 10 7 6 6 5 5 4 4 3
-1 -1 -1 -1 -1 -1 -1 -1 -1 -1 1 0 2 7 6 6 3 3 1 1 3 3 4 5 6 8 8 10 15 13 12 11 10 8 8 9 9 7 6 5 5 5 4 4 4
-1 -1 -1 -1 -1 -1 -1 1 4 6 4 7 7 8 7 3 2 2 1 3 3 5 9 7 10 12 10 9 9 9 10 10 9 7 9 9 9 8 7 6 6 5 5 5 4
-1 -1 -1 -1 -1 -1 -0 4 4 3 8 4 4 5 5 4 7 4 2 6 6 9 7 9 12 8 7 8 9 10 11 11 9 7 9 9 11 9 8 8 7 6 6 5 5
-1 -1 -1 -1 -1 -0 2 3 1 2 8 7 5 5 4 3 7 6 4 6 8 9 9 11 9 7 8 9 10 10 11 11 10 9 8 10 13 11 9 9 7 6 5 5 5
-1 -1 -1 -1 1 1 3 1 2 2 12 11 8 6 5 4 7 3 3 6 8 10 9 9 7 9 9 10 9 12 8 9 10 11 14 10 17 12 11 10 9 8 7 6 5
-0 -1 -1 -1 1 3 2 1 2 4 20 9 9 4 4 7 6 6 2 5 9 9 8 11 9 10 10 10 8 10 8 9 10 11 12 12 15 14 11 12 10 8 7 7 5
0 0 -1 0 0 0 1 1 4 13 20 13 9 10 9 7 8 6 6 4 5 8 8 8 7 8 9 8 8 7 9 10 10 11 17 13 13 16 13 11 10 8 7 6 6
0 0 0 -0 4 -1 0 4 14 18 12 14 12 9 10 11 10 8 9 10 11 14 14 11 10 8 7 9 8 9 11 17 18 18 17 12 14 15 11 9 9 9 7 6 5
0 1 1 1 -0 0 2 10 18 13 13 9 10 10 12 10 10 9 11 12 9 10 11 15 16 10 8 9 11 11 11 14 19 17 15 12 17 14 10 8 7 7 7 5 5
-0 2 3 1 -0 0 7 15 15 13 10 10 10 13 13 11 11 10 11 12 10 9 13 14 14 9 8 8 8 11 14 9 13 14 16 15 13 11 10 9 8 8 7 6 6
2 3 4 1 0 3 10 13 12 8 8 8 13 12 15 13 13 12 12 10 10 8 7 10 14 10 9 7 8 9 8 15 14 19 19 17 16 16 12 11 9 8 7 6 6
2 7 3 -0 1 7 13 12 11 7 7 9 11 13 12 13 11 13 12 10 8 9 7 9 11 12 10 12 12 11 12 11 11 13 17 18 17 11 11 10 10 8 7 6 6
4 10 2 0 9 10 12 10 9 9 7 8 7 9 10 11 12 12 12 10 7 7 11 8 10 14 13 9 8 9 10 11 14 15 13 14 17 10 9 9 8 8 7 7 6
7 7 1 2 12 12 10 10 9 10 9 9 9 8 8 10 13 11 10 7 7 7 10 9 12 16 15 11 9 12 10 10 10 11 14 17 17 10 9 9 8 7 7 6 6
6 10 7 6 6 10 11 11 11 8 9 8 8 7 9 10 9 11 10 8 7 7 7 7 11 13 15 13 11 13 12 10 11 16 15 14 14 11 10 8 7 7 6 6 6
8 9 8 11 10 9 9 10 11 11 9 8 10 9 10 12 11 11 9 9 8 7 8 8 14 12 11 10 11 11 11 11 12 12 14 12 11 11 9 8 7 7 6 5 6
8 8 7 8 8 9 9 11 11 10 10 11 11 9 8 11 11 12 10 10 10 8 9 8 14 12 14 11 11 13 11 11 10 11 11 11 11 8 7 7 7 6 6 6 6
3 3 5 8 9 10 10 10 10 9 8 7 9 10 10 8 6 6 6 7 8 10 11 11 13 14 16 12 12 16 12 11 11 10 10 13 10 7 8 7 6 6 6 7 6